Regional Weather Roundup
Issued by NWS

Home | Current Version | Previous Version | Text Only | Print | Product List | Glossary Off
Versions: 1 2 3 4 5 6 7 8 9 10 11 12 13 14 15 16 17 18 19 20 21 22 23 24 25 26 27 28 29 30 31 32 33 34 35 36 37 38 39 40 41 42 43 44 45 46 47 48 49 50

000
ASUS43 KTOP 250908
RWRKS

WEATHER ROUNDUP FOR KANSAS
NATIONAL WEATHER SERVICE GOODLAND KS
400 AM CDT THU MAY 25 2017

NOTE:  "FAIR" INDICATES FEW OR NO CLOUDS BELOW 12,000 FEET WITH NO
SIGNIFICANT WEATHER AND/OR OBSTRUCTIONS TO VISIBILITY.

KSZ001>006-013>018-027>032-041>047-251000-
NORTHWEST KANSAS

CITY           SKY/WX    TMP DP  RH WIND       PRES   REMARKS
GOODLAND       CLEAR     54  46  74 S18       29.51F
HAYS           CLEAR     51  45  79 SE9       29.60F
HILL CITY      CLEAR     50  45  83 SE8       29.58F
RUSSELL        CLEAR     52  44  74 S15       29.60F
$$

KSZ061>065-074>080-084>089-251000-
SOUTHWEST KANSAS

CITY           SKY/WX    TMP DP  RH WIND       PRES   REMARKS
DODGE CITY     CLEAR     53  44  71 S23       29.60F
ELKHART          N/A     49  40  71 S7          N/A
GARDEN CITY    CLEAR     52  43  71 S14       29.57F
GREAT BEND     CLEAR     52  44  74 SE14      29.62F
LIBERAL        CLEAR     53  48  83 SE12      29.58F
PRATT          CLEAR     50  42  72 S13       29.64S
$$

KSZ066>073-081>083-090>101-251000-
SOUTHEAST KANSAS

CITY           SKY/WX    TMP DP  RH WIND       PRES   REMARKS
CHANUTE        CLEAR     46  44  93 SE6       29.69F
COFFEYVILLE    CLEAR     46  46 100 S3        29.72R
HUTCHINSON     CLEAR     51  44  77 S8        29.66R
MEDICINE LODGE   N/A     52  44  74 SE7       29.64F
NEWTON         CLEAR     50  44  80 S9        29.67S
PARSONS        CLEAR     46  44  93 CALM      29.71F
WICHITA INTL   CLEAR     52  45  77 S13       29.66F
WICHITA JABRA  CLEAR     50  44  80 S9        29.67F
WICHITA MCCONL CLEAR     51  43  73 S10       29.66F
WINFIELD       CLEAR     50  44  80 SE5       29.69S
$$

KSZ007>012-019>026-033>040-048>060-102>105-251000-
NORTHEAST KANSAS

CITY           SKY/WX    TMP DP  RH WIND       PRES   REMARKS
CONCORDIA      CLEAR     51  45  79 S12       29.63S
EMPORIA        PTCLDY    46  45  96 SE7       29.67F
LAWRENCE       CLEAR     46  46 100 E3        29.69F
MANHATTAN      CLEAR     47  44  90 CALM      29.66S
MARYSVILLE     CLEAR     46  45  93 SE3       29.66R
OLATHE IND     CLEAR     49  46  90 SE6       29.70S
OLATHE EXE     CLEAR     47  47 100 CALM      29.70S
SALINA         PTCLDY    51  45  79 SE7       29.64F
TOPEKA BILLARD CLEAR     48  48 100 CALM      29.68F
TOPEKA FORBES  CLEAR     47  45  93 CALM      29.68F
$$




USA.gov is the U.S. government's official web portal to all federal, state and local government web resources and services.